Simultaneous Nadir Overpasses (SNOs) Predictions

Prediction of SNOs between GOES-14 and AQUA Satellite Orbit:

Table of predicted SNOs for the next 14.0 days since TLE Epoch: 1/3/2020
Index Date Time (GOES-14) GOES-14 Lat,Lon AQUA Lat,Lon Distance(km) Time Diff (sec)
1 01/04/2020 08:20:43 -0.01,-104.30 -0.58,-101.73 292.90 80
2 01/04/2020 20:42:07 0.02,-104.04 -0.56,-106.92 326.44 80
3 01/06/2020 20:32:35 0.01,-104.04 0.03,-103.95 10.27 80
4 01/08/2020 20:20:23 0.01,-104.04 0.63,-100.98 346.76 80
5 01/09/2020 08:41:39 -0.01,-104.31 0.41,-106.15 210.30 80
6 01/11/2020 08:26:48 -0.00,-104.30 -0.26,-103.20 125.73 80
7 01/11/2020 20:48:11 0.01,-104.03 -0.94,-108.37 494.56 80
8 01/13/2020 08:14:36 0.00,-104.29 -0.87,-100.24 461.58 80
9 01/13/2020 20:36:00 0.01,-104.02 -0.27,-105.42 158.58 80
10 01/15/2020 20:26:28 0.01,-104.02 0.34,-102.46 177.54 80
11 01/16/2020 08:45:04 -0.01,-104.29 0.70,-107.62 378.93 80




NCC Satellite Simultaneous Nadir Overpasses (SNOs) Prediction Service
